Location: Dompnac
(44.5644°N, 4.1026°E)
Time: 11:32:15
(UTC+00:00)

USA 116 - Pass Details

Date: 19 September 2020
Orbit: 405 x 834 km, 97.9° (Epoch: 18 November)

Event Time Altitude Azimuth Distance (km) Brightness Sun altitude
Rises 18:30:29 0° 14° (NNE) 2,455 7.0 -8.7°
Reaches altitude 10° 18:32:25 10° 15° (NNE) 1,620 6.1 -9.0°
Maximum altitude 18:35:53 82° 104° (ESE) 508 3.4 -9.6°
Drops below altitude 10° 18:39:44 10° 192° (SSW) 1,802 6.4 -10.3°
Sets 18:41:59 0° 193° (SSW) 2,761 7.3 -10.7°
